Meteo Giornale » Osservazioni meteo Italia » Bergamo-Orio Al Serio

ore: 03:50 - Osservazioni Meteo Bergamo-Orio Al Serio
Lat. 45° 40' N Lon. 9° 42' E Alt. 238 metri s.l.m.

molto_nuvoloso Europe/Rome

7 °C

Molto Nuvoloso

Temp. 24 Ore

2 °C

12 °C

Nord

5.5 Km/h

Dew point 3 °C

Umidità 75 %

Visibilità  6 Km

Il sole sorge alle ore 07:18

Il sole tramonta alle ore 17:51

Data e Ora Cielo e Fenomeni T °C DP °C Um. % Pres. hPa Vis. km Vento km/h
Oggi h: 03:50 molto_nuvoloso Molto Nuvoloso 7 3 75 1026 6 N 5.5
Oggi h: 03:20 molto_nuvoloso Molto Nuvoloso 7 3 75 1026 6 N 7.4
Oggi h: 02:50 molto_nuvoloso Molto Nuvoloso 6 3 81 1027 6 N 5.5
Oggi h: 02:20 molto_nuvoloso Molto Nuvoloso 7 3 75 1027 6 N 5.5
Oggi h: 01:50 molto_nuvoloso Molto Nuvoloso 7 3 75 1027 6 N 5.5
Oggi h: 01:20 molto_nuvoloso Molto Nuvoloso 8 3 70 1027 6 N 3.7
Oggi h: 00:50 molto_nuvoloso Molto Nuvoloso 8 3 70 1027 6 N 1.8
Oggi h: 00:20 molto_nuvoloso Molto Nuvoloso 7 3 75 1027 6 N 9.3
Ieri h: 23:50 molto_nuvoloso Molto Nuvoloso 7 4 81 1027 6 N 7.4
Ieri h: 23:20 molto_nuvoloso Molto Nuvoloso 7 3 75 1027 6 N 5.5
Ieri h: 22:50 nuvoloso Nuvoloso 7 3 75 1028 6 N 5.5
Ieri h: 22:20 nuvoloso Nuvoloso 7 3 75 1028 6 N 7.4
Ieri h: 21:50 nuvoloso Nuvoloso 7 3 75 1028 6 N 5.5
Ieri h: 21:20 sereno Sereno 7 3 75 1028 6 N 7.4
Ieri h: 20:50 sereno Sereno 7 3 75 1028 6 N 9.3
Ieri h: 20:20 sereno Sereno 7 4 81 1028 6 N 7.4
Ieri h: 19:50 foschia Foschia 8 4 75 1028 5 N 7.4
Ieri h: 19:20 foschia Foschia 9 4 70 1028 5 N 3.7
Ieri h: 18:50 foschia Foschia 9 5 75 1028 5 N 3.7
Ieri h: 18:20 foschia Foschia 9 4 70 1028 5 N 3.7
Ieri h: 17:50 foschia Foschia 10 4 66 1028 5 O 7.4
Ieri h: 16:50 sereno Sereno 12 5 62 1027 6 O 11.1
Ieri h: 16:20 sereno Sereno 12 5 62 1027 6 O/SO 7.4
Ieri h: 15:50 sereno Sereno 12 5 62 1027 6 O/SO 7.4
Ieri h: 15:20 sereno Sereno 12 4 57 1027 6 O/SO 7.4
Ieri h: 14:50 sereno Sereno 12 3 54 1027 6 O 9.3
Ieri h: 14:20 sereno Sereno 12 4 57 1028 6 O 7.4
Ieri h: 13:50 poco_nuvoloso Poco Nuvoloso 12 3 54 1028 7 O 9.3
Ieri h: 13:20 sereno Sereno 12 2 50 1028 7 N 1.8
Ieri h: 12:50 sereno Sereno 12 3 54 1028 7 N 1.8
Ieri h: 12:20 sereno Sereno 11 3 57 1029 7 N 3.7
Ieri h: 11:50 sereno Sereno 10 3 61 1029 7 N 3.7
Ieri h: 11:20 sereno Sereno 10 3 61 1029 8 N 5.5
Ieri h: 10:50 sereno Sereno 10 2 57 1029 8 N 1.8
Ieri h: 10:20 nuvoloso Nuvoloso 9 2 61 1029 8 N 3.7
Ieri h: 09:50 nuvoloso Nuvoloso 7 2 70 1029 8 N 1.8
Ieri h: 09:20 sereno Sereno 6 2 75 1029 9 N 3.7
Ieri h: 08:50 sereno Sereno 5 1 75 1029 9 N 5.5
Ieri h: 08:20 sereno Sereno 4 0 75 1028 10 N 9.3
Ieri h: 07:50 sereno Sereno 3 -0 80 1028 10 N 9.3
Ieri h: 07:20 sereno Sereno 2 -0 86 1028 10 N 7.4
Ieri h: 06:50 sereno Sereno 3 0 80 1027 10 N 7.4
Ieri h: 06:20 sereno Sereno 4 0 75 1027 10 N 9.3
Ieri h: 05:50 sereno Sereno 3 0 80 1027 10 N 9.3
Ieri h: 05:20 sereno Sereno 4 0 75 1027 10 N 9.3
Ieri h: 04:50 sereno Sereno 4 0 75 1027 10 N 7.4
Ieri h: 04:20 sereno Sereno 4 1 80 1027 10 N 9.3
Ieri h: 03:50 sereno Sereno 4 1 80 1027 10 N 7.4